WetterOnline ( https://www.wetteronline.de )

Wetter aktuell Winterlingen

Aktuelles Wetter: Messstetten (900m)

6-stündlich | Neueste Meldungen
Ortszeit Temperatur Wetter
Mi, 19.06. 20:00 23.7° C wolkenlos
Mi, 19.06. 14:00 23.5° C wolkig
Mi, 19.06. 8:00 17.9° C wolkenlos
Mi, 19.06. 2:00 14.7° C bedeckt
Di, 18.06. 20:00 20.7° C bedeckt
Di, 18.06. 14:00 23.5° C bewölkt
Di, 18.06. 8:00 17.1° C wolkenlos
Di, 18.06. 2:00 11.7° C leicht bewölkt
Ortszeit Temperatur Wetter
Mi, 19.06. 22:30 13.3° C wolkig
Mi, 19.06. 22:20 13.3° C wolkig
Mi, 19.06. 22:10 13.0° C wolkig
Mi, 19.06. 22:00 13.7° C wolkig
Mi, 19.06. 21:50 13.7° C wolkig
Mi, 19.06. 21:40 14.5° C wolkig
Mi, 19.06. 21:30 -° C leicht bewölkt
Mi, 19.06. 21:00 17.6° C leicht bewölkt
Mi, 19.06. 20:30 21.5° C leicht bewölkt
Mi, 19.06. 20:00 23.7° C wolkenlos
Mi, 19.06. 19:30 23.6° C leicht bewölkt
Ortszeit Relative Feuchte Sichtweite
Mi, 19.06. 20:00 44% 65 km
Mi, 19.06. 14:00 45% 55 km
Mi, 19.06. 8:00 62% 40 km
Mi, 19.06. 2:00 77% 55 km
Di, 18.06. 20:00 73% 50 km
Di, 18.06. 14:00 51% 50 km
Di, 18.06. 8:00 78% 23 km
Di, 18.06. 2:00 92% 24 km
Ortszeit Relative Feuchte Sichtweite
Mi, 19.06. 22:30 88% 35 km
Mi, 19.06. 22:20 88% -
Mi, 19.06. 22:10 88% -
Mi, 19.06. 22:00 89% 30 km
Mi, 19.06. 21:50 89% -
Mi, 19.06. 21:40 87% -
Mi, 19.06. 21:30 - 50 km
Mi, 19.06. 21:00 83% 35 km
Mi, 19.06. 20:30 57% 60 km
Mi, 19.06. 20:00 44% 65 km
Mi, 19.06. 19:30 45% 55 km
Ortszeit Niederschlagsmenge Niederschlagsart
Mi, 19.06. 20:00 0.0 l/m2 in 12 Std. -
Mi, 19.06. 14:00 0.0 l/m2 in 6 Std. -
Mi, 19.06. 8:00 0.0 l/m2 in 12 Std. -
Mi, 19.06. 2:00 0.0 l/m2 in 6 Std. -
Di, 18.06. 20:00 0.3 l/m2 in 12 Std. Regen
Di, 18.06. 14:00 0.0 l/m2 in 6 Std. -
Di, 18.06. 8:00 0.0 l/m2 in 12 Std. -
Di, 18.06. 2:00 0.0 l/m2 in 6 Std. -
Ortszeit Niederschlagsmenge Niederschlagsart
Mi, 19.06. 22:30 0.0 l/m2 in 1 Std. -
Mi, 19.06. 22:20 keine Meldung -
Mi, 19.06. 22:10 keine Meldung -
Mi, 19.06. 22:00 0.0 l/m2 in 1 Std. -
Mi, 19.06. 21:50 keine Meldung -
Mi, 19.06. 21:40 keine Meldung -
Mi, 19.06. 21:30 0.0 l/m2 in 1 Std. -
Mi, 19.06. 21:00 0.0 l/m2 in 1 Std. -
Mi, 19.06. 20:30 0.0 l/m2 in 1 Std. -
Mi, 19.06. 20:00 0.0 l/m2 in 1 Std. -
Mi, 19.06. 19:30 0.0 l/m2 in 1 Std. -
Ortszeit Stärke Spitze Richtung
km/h Bft. km/h Grad Sektor
Mi, 19.06. 20:00 4 1 29 330° NW
Mi, 19.06. 14:00 7 2 25 210° SW
Mi, 19.06. 8:00 6 1 17 170° S
Mi, 19.06. 2:00 11 2 18 130° SO
Di, 18.06. 20:00 0 0 47 - -
Di, 18.06. 14:00 11 2 22 220° SW
Di, 18.06. 8:00 9 2 11 110° O
Di, 18.06. 2:00 7 2 18 110° O
Ortszeit Stärke Spitze Richtung
km/h Bft. km/h Grad Sektor
Mi, 19.06. 22:30 0 0 4 - -
Mi, 19.06. 22:20 2 1 - 230° SW
Mi, 19.06. 22:10 2 1 - 190° S
Mi, 19.06. 22:00 0 0 4 - -
Mi, 19.06. 21:50 0 0 - 230° SW
Mi, 19.06. 21:40 0 0 - 180° S
Mi, 19.06. 21:30 4 1 4 90° O
Mi, 19.06. 21:00 0 0 7 - -
Mi, 19.06. 20:30 4 1 7 30° NO
Mi, 19.06. 20:00 4 1 11 330° NW
Mi, 19.06. 19:30 6 1 11 320° NW
Ortszeit Untergrenze Bedeckung Gattung
total tief tief mittel hoch
Mi, 19.06. 20:00 - 0/8 0/8 - - -
Mi, 19.06. 14:00 1800 m 7/8 4/8 - - -
Mi, 19.06. 8:00 - 0/8 0/8 - - -
Mi, 19.06. 2:00 4200 m 8/8 8/8 - - -
Di, 18.06. 20:00 4800 m 8/8 8/8 - - -
Di, 18.06. 14:00 1470 m 7/8 7/8 - - -
Di, 18.06. 8:00 - 0/8 0/8 - - -
Di, 18.06. 2:00 9000 m 5/8 0/8 - - -
Ortszeit Bedeckungsgrad in Achtel und Wolkenuntergrenze
Mi, 19.06. 22:30 3(3600m) 7(8100m) 8(9000m)
Mi, 19.06. 22:20 3(3600m) 7(8100m) 8(9000m)
Mi, 19.06. 22:10 2(3600m) 8(9000m) 8(9000m)
Mi, 19.06. 22:00 7(8100m) 7(9000m)
Mi, 19.06. 21:50 7(8100m) 7(9000m)
Mi, 19.06. 21:40 7(8100m) 7(9000m)
Mi, 19.06. 21:30 5(8400m) 6(9000m) 6(9000m)
Mi, 19.06. 21:00 3(9000m) 4(9000m)
Mi, 19.06. 20:30 6(9000m)
Mi, 19.06. 20:00 keine Wolken
Mi, 19.06. 19:30 3(3300m)
Ortszeit Stationsdruck (hPa) Tendenz (hPa in 3 Std.)
Mi, 19.06. 20:00 910 - 0,4
Mi, 19.06. 14:00 911 - 0,1
Mi, 19.06. 8:00 912 0,0
Mi, 19.06. 2:00 913 - 0,4
Di, 18.06. 20:00 914 + 0,3
Di, 18.06. 14:00 914 - 0,7
Di, 18.06. 8:00 915 + 0,1
Di, 18.06. 2:00 915 - 0,4
Ortszeit Stationsdruck (hPa) Tendenz (hPa in 3 Std.)
Mi, 19.06. 22:30 911 + 1,3
Mi, 19.06. 22:20 911 keine Meldung
Mi, 19.06. 22:10 911 keine Meldung
Mi, 19.06. 22:00 911 + 0,8
Mi, 19.06. 21:50 911 keine Meldung
Mi, 19.06. 21:40 910 keine Meldung
Mi, 19.06. 21:30 910 + 0,4
Mi, 19.06. 21:00 910 + 0,1
Mi, 19.06. 20:30 910 - 0,3
Mi, 19.06. 20:00 910 - 0,4
Mi, 19.06. 19:30 910 - 1,0
Ortszeit Schneehöhe (cm)
Mi, 19.06. 20:00 -
Mi, 19.06. 14:00 -
Mi, 19.06. 8:00 -
Mi, 19.06. 2:00 -
Di, 18.06. 20:00 -
Di, 18.06. 14:00 -
Di, 18.06. 8:00 -
Di, 18.06. 2:00 -
Ortszeit Schneehöhe (cm)
Mi, 19.06. 22:30 -
Mi, 19.06. 22:20 -
Mi, 19.06. 22:10 -
Mi, 19.06. 22:00 -
Mi, 19.06. 21:50 -
Mi, 19.06. 21:40 -
Mi, 19.06. 21:30 -
Mi, 19.06. 21:00 -
Mi, 19.06. 20:30 -
Mi, 19.06. 20:00 -
Mi, 19.06. 19:30 -
Link zu dieser Seite / Seite empfehlen

Das Wetter in ...